www.pogodaiklimat.ru

Погода и климат >> Архив погоды >> Иран >> Bandar Deyr


ПОГОДА в Bandar Deyr

  • Прогноз погоды в Bandar Deyr
  • Монитор погоды в Bandar Deyr
  • Климат города

АРХИВ ПОГОДЫ в Bandar Deyr

Время (UTC), дата Ветер
(напр.,м/с)
 
Видим.   Явления Облачность Т
(С)
Тd
(С)
f
(%)
Тe
(С)
Тes
(С)
Комфортность P
(гПа)
Po
(гПа)
Тmin
(С)
Tmax
(С)
R
(мм)
R24
(мм)
S
(см)
09 18.06 Ю 2 7000 м дымка ясно +30.4 +27.4 84 +49 +71 опасность
перегрева
999.1 998.7
12 18.06 Ю 3 7000 м дымка ясно +30.8 998.5 998.1
15 18.06 Ю 1 7000 м дымка ясно +30.1 +27.6 87 +49 +49 опасность
перегрева
998.6 998.2 +31.1
18 18.06 Ю 1 5000 м дымка ясно +29.1 +27.6 92 +47 +47 опасность
перегрева
999.4 999.0
21 18.06 ЮЗ 1 5000 м дымка ясно +28.8 +27.4 92 +46 +46 опасность
перегрева
998.6 998.2
00 19.06 ЮЗ 1 5000 м дымка ясно +27.3 +26.4 95 +42 +42 опасность
перегрева
998.4 998.0
03 19.06 ЮВ 2 1500 м туман на расстоянии ясно +26.0 +25.4 97 +38 +40 очень
душно
999.4 999.0 +26.0
06 19.06 штиль 0 1000 м дымка ясно +28.6 1000.3 999.8
09 19.06 Ю 2 1000 м дымка ясно +30.8 +27.8 84 +50 +72 опасность
перегрева
1000.4 1000.0
12 19.06 ЮВ 2 2000 м дымка ясно +32.0 999.4 999.0
15 19.06 В 2 4000 м дымка ясно +31.2 +28.5 86 +53 +53 опасность
перегрева
999.3 998.8 +32.7
18 19.06 штиль 0 4000 м дымка ясно +29.8 +28.2 91 +50 +50 опасность
перегрева
999.6 999.1
21 19.06 штиль 0 2000 м дымка ясно +28.8 +27.7 94 +47 +47 опасность
перегрева
998.6 998.1
00 20.06 штиль 0 4000 м дымка ясно +27.8 +25.2 86 +40 +40 очень
душно
998.1 997.6
03 20.06 СЗ 6 7000 м пыль ясно +33.8 +14.1 31 +35 +36 очень
жарко
998.3 997.9 +26.8
06 20.06 С 3 7000 м пыль ясно +39.3 999.9 999.4
09 20.06 Ю 5 7000 м дымка ясно +31.6 +28.4 83 +53 +64 опасность
перегрева
1000.6 1000.1
12 20.06 ЮЗ 2 7000 м пыль ясно +32.6 1000.0 999.5
15 20.06 Ю 2 7000 м дымка ясно +31.0 +27.7 83 +51 +51 опасность
перегрева
1000.6 1000.2 +40.4
18 20.06 штиль 0 7000 м пыль ясно +31.4 +19.7 50 +37 +37 очень
душно
1000.7 1000.3
21 20.06 З 2 7000 м пыль ясно +30.2 +24.9 73 +43 +43 опасность
перегрева
999.5 999.1
00 21.06 Ю 2 7000 м дымка ясно +29.2 +25.9 82 +44 +44 опасность
перегрева
998.8 998.3
03 21.06 С 2 6000 м пыль ясно +30.4 +19.5 52 +36 +38 очень
душно
999.6 999.2 +27.2
06 21.06 ЮВ 2 6000 м пыль ясно +32.4 1000.7 1000.3
09 21.06 ЮВ 3 6000 м пыль ясно +33.2 +27.4 72 +52 +71 опасность
перегрева
1000.1 999.7
12 21.06 Ю 2 6000 м пыль ясно +34.6 998.6 998.1
15 21.06 Ю 1 7000 м пыль ясно +33.0 +27.1 71 +51 +51 опасность
перегрева
998.3 997.8 +36.8
18 21.06 СЗ 3 7000 м пыль ясно +37.2 +13.5 24 +37 +37 очень
жарко
999.2 998.7
21 21.06 СЗ 5 8000 м пыль ясно +36.7 +12.5 23 +36 +36 очень
жарко
998.8 998.3
03 22.06 СЗ 8 7000 м пыльный позёмок ясно +33.7 +14.9 32 +35 +36 очень
жарко
998.3 997.8 +31.8
06 22.06 СЗ 5 7000 м пыль ясно +40.0 999.0 998.5
09 22.06 З 3 8000 м пыль ясно +39.8 +24.2 41 +51 +69 опасность
перегрева
998.9 998.5
12 22.06 З 4 8000 м пыль ясно +41.2 997.1 996.6
15 22.06 З 2 8000 м пыль ясно +36.9 +19.6 36 +42 +42 опасность
перегрева
997.2 996.8 +44.6
18 22.06 З 1 8000 м пыль ясно +33.4 +21.4 49 +41 +41 опасность
перегрева
998.6 998.2
21 22.06 В 1 8000 м пыль ясно +30.4 +24.5 71 +34 +34 очень
душно
999.2 998.8
00 23.06 ЮВ 2 8000 м дымка ясно +29.1 +25.8 82 +43 +43 опасность
перегрева
998.6 998.2
03 23.06 С 1 7000 м мгла ясно +28.4 +22.2 69 +37 +39 очень
душно
999.6 999.2 +26.9
06 23.06 ЮЗ 4 7000 м пыль ясно +32.8 1000.1 999.6
09 23.06 ЮЗ 4 8000 м пыль ясно +37.6 +24.2 47 +50 +64 опасность
перегрева
999.2 998.8
12 23.06 З 5 8000 м пыль ясно +39.6 997.0 996.5
15 23.06 З 4 8000 м пыль ясно +39.0 +17.5 29 +42 +42 опасность
перегрева
997.1 996.6 +42.2
18 23.06 З 4 8000 м пыль ясно +36.0 +14.6 28 +37 +37 душно 998.3 997.9
21 23.06 Ю 2 8000 м пыль ясно +30.6 +24.4 70 +43 +43 опасность
перегрева
998.7 998.3
00 24.06 С 2 8000 м пыль ясно +29.4 +22.4 66 +38 +38 очень
душно
998.8 998.4
03 24.06 С 2 7000 м пыль ясно +30.0 +25.8 78 +45 +46 опасность
перегрева
999.8 999.4 +28.7
06 24.06 Ю 2 7000 м пыль ясно +31.8 1000.6 1000.2
09 24.06 ЮЗ 3 8000 м пыль ясно +33.2 +26.9 70 +51 +69 опасность
перегрева
1000.6 1000.2
12 24.06 ЮЗ 5 7000 м пыль ясно +36.1 998.7 998.3
15 24.06 ЮЗ 2 8000 м пыль ясно +37.6 +20.4 37 +44 +44 опасность
перегрева
998.6 998.1 +38.3
18 24.06 СЗ 3 8000 м пыль ясно +36.4 +14.9 28 +38 +38 очень
душно
999.1 998.6
21 24.06 штиль 0 8000 м пыль ясно +31.2 +24.1 66 +43 +43 опасность
перегрева
999.4 998.9
00 25.06 штиль 0 8000 м пыль ясно +29.0 +25.0 79 +42 +42 опасность
перегрева
999.5 999.0
03 25.06 штиль 0 6000 м дымка ясно +28.8 +25.7 83 +43 +45 опасность
перегрева
1000.8 1000.3 +28.8
06 25.06 Ю 2 6000 м мгла ясно +31.2 1001.1 1000.6

 

Местоположение метеостанции Bandar Deyr (Иран): широта 27.83 долгота 51.93 высота над уровнем моря 4 м.

В архиве по умолчанию представлена погода в Bandar Deyr за последнюю неделю. Архивные данные за месяц целиком и за предыдущие месяцы, начиная с января 2011 года, Вы можете получить, выбрав интересующий диапазон дат из раскрывающегося списка и нажав кнопку "Ввод!".


*Определитесь, кто Вы:
робот инопланетянин человек

Внимание! Время в таблицах - всемирное. Для получения местного времени необходимо прибавить поправку, которая в Bandar Deyr равна 3.5 ч.

Смотрите также архив погоды в соседних городах и на ближайших метеорологических станциях:

Погода в Bushehr (Иран) (163 км)
Погода в Bushehr Airport (Иран) (167 км)
Погода в Shiraz (Иран) (198 км)
Погода в Fasa (Иран) (213 км)
Погода в Bahrain (Бахрейн) (215 км)
Погода в Khark (Иран) (224 км)
Погода в Dhahran (Саудовская Аравия) (246 км)
Погода в Kish Island (Иран) (251 км)
Погода в King Fahd Int Airport (Саудовская Аравия) (259 км)
Погода в Hamad Int Airport (Катар) (287 км)

Пояснения к столбцам:

Ветер - указаны скорость ветра в м/с - средняя за 10 мин, порывы в срок и между сроками (в фигурных скобках) и направление, откуда дует ветер: С - северный, СВ - северо-восточный, В - восточный, ЮВ - юго-восточный, Ю - южный, ЮЗ - юго-западный, З - западный, СЗ - северо-западный.
Видимость - горизонтальная дальность видимости в метрах или километрах. При видимости от 1 до 10 км при отсутствии осадков обычно наблюдается дымка, при ухудшении видимости до 1 км и менее - туман. В сухую погоду видимость может ухудшаться дымом, пылью или мглою.
Явления - указаны атмосферные явления, наблюдавшиеся в срок или в последний час перед сроком; фигурными скобками обозначены явления, наблюдавшиеся между сроками (за 1-3 часа до срока); квадратными скобками обозначены град или гололедные отложения с указанием их диаметра в мм.
Облачность - указаны через наклонную черту общая и нижняя облачность в баллах и высота нижней границы облаков в метрах; квадратными скобками обозначены формы облаков: Ci - перистые, Cs - перисто-слоистые, Cc - перисто-кучевые, Ac - высококучевые, As - высокослоистые, Sc - слоисто-кучевые, Ns - слоисто-дождевые, Cu - кучевые, Cb - кучево-дождевые. Подробнее классификацию облаков см. в Атласе облаков (PDF).
T - Температура воздуха - температура, измеренная на высоте 2 м над землей.
Td - Температура точки росы - температура, при понижении до которой содержащийся в воздухе водяной пар достигнет насыщения.
f - Относительная влажность воздуха - влажноcть воздуха, измеренная на высоте 2 м над землей.
Te - Эффективная температура - температура, которую ощущает одетый по сезону человек в тени. Характеристика душности погоды. При расчете учитывается влияние влажности воздуха и скорости ветра на теплоощущения человека.
Tes - Эффективная температура на солнце - температура, которую ощущает человек, с поправкой на солнечный нагрев. Характеристика знойности погоды. Зависит от высоты солнца над горизонтом, облачности и скорости ветра. Ночью, в пасмурную погоду, а также при ветре 12 м/с и более поправка равна нулю.
P - Атмосферное давление - приведенное к уровню моря атмосферное давление.
Po - Атмосферное давление - измеренное на уровне метеостанции атмосферное давление.
Tmin - Минимальная температура - минимум температуры воздуха на высоте 2 м над землей.
Tmax - Максимальная температура - максимум температуры воздуха на высоте 2 м над землей.
R - Количество осадков - Количество выпавших осадков за период времени, мм. При наведении курсора мыши на число - период времени, за который выпало указанное количество осадков.
R24 - Количество осадков - Количество выпавших осадков за 24 часа, мм.
S - Снежный покров - Высота снежного покрова, см. При наведении курсора мыши на число - состояние снежного покрова и степень покрытия местности в баллах.